Panakton, Greece

7:13 PM EET on February 25, 2017 (GMT +0200)
Elefsis Air Base

Weather History for LGEL - May, 2014

Change the Weather History Date:

Friday, May 30, 2014

  Actual Average Record
Temperature  
Mean Temperature 70 °F -  
Max Temperature 78 °F 85 °F 95 °F (2001)
Min Temperature 62 °F 67 °F 56 °F (2015)
Cooling Degree Days 5    
Growing Degree Days 20 (Base 50)    
Moisture  
Dew Point 48 °F    
Average Humidity 43    
Maximum Humidity 64    
Minimum Humidity 29    
Precipitation  
Precipitation 0.00 in - - ()
Sea Level Pressure  
Sea Level Pressure 29.74 in    
Wind  
Wind Speed 9 mph ()    
Max Wind Speed 20 mph    
Max Gust Speed 34 mph    
Visibility 6.2 miles    
Events      
Averages and records for this station are not official NWS values.
T = Trace of Precipitation, MM = Missing Value Source: Averaged Metar Reports

Daily Weather History Graph

Daily Weather History Graph

Search for Another Location

Airport or City:

Trip Planner

Search our weather history database for the weather conditions in past years. The results will help you decide how hot, cold, wet, or windy it might be!

Date:

Astronomy

May. 30, 2014 Rise Set
Actual Time 6:05 AM EEST 8:41 PM EEST
Civil Twilight 5:34 AM EEST 9:12 PM EEST
Nautical Twilight 4:56 AM EEST 9:50 PM EEST
Astronomical Twilight 4:14 AM EEST 10:33 PM EEST
Moon 7:32 AM EEST (5/30) 10:04 PM EEST (5/30)
Length of Visible Light 15h 37m
Length of Day
14h 35m
Waxing Crescent, 3% of the Moon is Illuminated
May 30
Waxing Crescent
Jun 5
First Quarter
Jun 13
Full
Jun 19
Last Quarter
Jun 27
New

Hourly Weather History & Observations

Time (EEST) Temp. Dew Point Humidity Pressure Visibility Wind Dir Wind Speed Gust Speed Precip Events Conditions
12:50 AM 69.8 °F 51.8 °F 53% 29.77 in 6.2 mi West 8.1 mph - N/A   Scattered Clouds
1:50 AM 66.2 °F 51.8 °F 60% 29.77 in 6.2 mi Calm Calm - N/A   Partly Cloudy
2:50 AM 68.0 °F 48.2 °F 49% 29.74 in 6.2 mi WSW 9.2 mph - N/A   Partly Cloudy
3:20 AM 66.2 °F 48.2 °F 52% 29.74 in 6.2 mi WSW 9.2 mph - N/A   Partly Cloudy
3:50 AM 66.2 °F 48.2 °F 52% 29.74 in 6.2 mi North 5.8 mph - N/A   Partly Cloudy
4:20 AM 66.2 °F 48.2 °F 52% 29.74 in 6.2 mi North 5.8 mph - N/A   Partly Cloudy
4:50 AM 62.6 °F 48.2 °F 59% 29.74 in 6.2 mi Calm Calm - N/A   Partly Cloudy
5:20 AM 62.6 °F 48.2 °F 59% 29.74 in 6.2 mi Calm Calm - N/A   Partly Cloudy
5:50 AM 66.2 °F 50.0 °F 56% 29.74 in 6.2 mi SW 5.8 mph - N/A   Partly Cloudy
6:20 AM 64.4 °F 50.0 °F 59% 29.74 in 6.2 mi WSW 8.1 mph - N/A   Partly Cloudy
6:50 AM 64.4 °F 51.8 °F 64% 29.74 in 6.2 mi SW 8.1 mph - N/A   Partly Cloudy
7:20 AM 66.2 °F 51.8 °F 60% 29.74 in 6.2 mi WSW 6.9 mph - N/A   Partly Cloudy
7:50 AM 68.0 °F 48.2 °F 49% 29.74 in 6.2 mi WSW 4.6 mph - N/A   Partly Cloudy
8:20 AM 68.0 °F 48.2 °F 49% 29.74 in 6.2 mi West 8.1 mph - N/A   Partly Cloudy
8:50 AM 71.6 °F 48.2 °F 43% 29.74 in 6.2 mi West 10.4 mph 24.2 mph N/A   Scattered Clouds
9:20 AM 71.6 °F 48.2 °F 43% 29.74 in 6.2 mi West 8.1 mph - N/A   Partly Cloudy
9:50 AM 71.6 °F 48.2 °F 43% 29.74 in 6.2 mi West 15.0 mph 29.9 mph N/A   Partly Cloudy
10:20 AM 73.4 °F 46.4 °F 38% 29.74 in 6.2 mi WNW 17.3 mph 28.8 mph N/A   Partly Cloudy
10:50 AM 75.2 °F 46.4 °F 36% 29.74 in 6.2 mi West 13.8 mph 28.8 mph N/A   Partly Cloudy
11:20 AM 73.4 °F 39.2 °F 29% 29.74 in 6.2 mi West 18.4 mph 31.1 mph N/A   Partly Cloudy
11:50 AM 75.2 °F 46.4 °F 36% 29.74 in 6.2 mi West 19.6 mph 32.2 mph N/A   Partly Cloudy
12:20 PM 75.2 °F 48.2 °F 38% 29.74 in 6.2 mi West 19.6 mph 31.1 mph N/A   Partly Cloudy
12:50 PM 75.2 °F 46.4 °F 36% 29.74 in 6.2 mi West 16.1 mph 32.2 mph N/A   Scattered Clouds
1:20 PM 77.0 °F 46.4 °F 34% 29.74 in 6.2 mi West 18.4 mph 32.2 mph N/A   Scattered Clouds
1:50 PM 78.8 °F 46.4 °F 32% 29.74 in 6.2 mi West 17.3 mph 28.8 mph N/A   Scattered Clouds
2:20 PM 77.0 °F 46.4 °F 34% 29.74 in 6.2 mi WNW 11.5 mph 26.5 mph N/A   Mostly Cloudy
2:50 PM 75.2 °F 48.2 °F 38% 29.74 in 6.2 mi WNW 17.3 mph 28.8 mph N/A   Mostly Cloudy
3:20 PM 75.2 °F 48.2 °F 38% 29.74 in 6.2 mi WNW 17.3 mph 34.5 mph N/A   Mostly Cloudy
3:50 PM 78.8 °F 46.4 °F 32% 29.71 in 6.2 mi West 18.4 mph 29.9 mph N/A   Scattered Clouds
4:20 PM 78.8 °F 46.4 °F 32% 29.71 in 6.2 mi West 16.1 mph 28.8 mph N/A   Scattered Clouds
4:50 PM 77.0 °F 46.4 °F 34% 29.71 in 6.2 mi West 19.6 mph - N/A   Scattered Clouds
5:20 PM 77.0 °F 46.4 °F 34% 29.71 in 6.2 mi West 17.3 mph 28.8 mph N/A   Scattered Clouds
5:50 PM 77.0 °F 46.4 °F 34% 29.71 in 6.2 mi West 15.0 mph 26.5 mph N/A   Scattered Clouds
6:50 PM 75.2 °F 46.4 °F 36% 29.71 in 6.2 mi West 13.8 mph 25.3 mph N/A   Scattered Clouds
7:20 PM 75.2 °F 46.4 °F 36% 29.71 in 6.2 mi West 15.0 mph - N/A   Scattered Clouds
7:50 PM 75.2 °F 48.2 °F 38% 29.74 in 6.2 mi WNW 11.5 mph 23.0 mph N/A   Scattered Clouds
8:20 PM 75.2 °F 48.2 °F 38% 29.74 in 6.2 mi WNW 11.5 mph 23.0 mph N/A   Scattered Clouds
8:50 PM 73.4 °F 48.2 °F 41% 29.74 in 6.2 mi NW 11.5 mph - N/A   Scattered Clouds
9:20 PM 73.4 °F 48.2 °F 41% 29.74 in 6.2 mi NW 11.5 mph - N/A   Scattered Clouds
9:50 PM 71.6 °F 48.2 °F 43% 29.77 in 6.2 mi NW 8.1 mph - N/A   Scattered Clouds
10:20 PM 71.6 °F 48.2 °F 43% 29.77 in 6.2 mi NW 8.1 mph - N/A   Scattered Clouds
11:20 PM 71.6 °F 50.0 °F 46% 29.77 in 6.2 mi NNW 9.2 mph - N/A   Scattered Clouds